This demonstration page uses our WeatherBlox Daily Observations layout. Learn more.

Left ArrowRight Arrow

39.08367, -84.50855

Hourly Observations for April 1, 2019

Temp ( °F °C ) Dew Point ( °F °C ) Humidity (%) Winds ( mph kmh ) Pressure ( in mb ) Visibility ( mi km ) Precip ( " mm )
12:53 am 00:53 Clear 29 -1.7 19 -7.2 66 66 Calm 30.43 1030 10 16.0934 0 0
1:53 am 01:53 Clear 28 -2.2 21 -6.1 75 75 Calm 30.42 1030 10 16.0934 0 0
2:53 am 02:53 Clear 27 -2.8 22 -5.6 81 81 Calm 30.41 1030 10 16.0934 0 0
3:53 am 03:53 Clear 27 -2.8 22 -5.6 81 81 Calm 30.4 1029 10 16.0934 0 0
4:53 am 04:53 Clear 26 -3.3 23 -5 88 88 VRB 3 6 30.39 1029 10 16.0934 0 0
5:53 am 05:53 Clear 24 -4.4 21 -6.1 88 88 Calm 30.4 1030 10 16.0934 0 0
6:53 am 06:53 Clear 25 -3.9 22 -5.6 88 88 Calm 30.42 1030 10 16.0934 0 0
7:53 am 07:53 Sunny 24 -4.4 22 -5.6 91 91 ENE 3 6 30.44 1031 10 16.0934 0 0
8:53 am 08:53 Sunny 30 -1.1 26 -3.3 85 85 Calm 30.45 1031 10 16.0934 0 0
9:53 am 09:53 Sunny 34 1.1 20 -6.7 56 56 NE 6 9 30.46 1031 10 16.0934 0 0
10:53 am 10:53 Sunny 37 2.8 16 -8.9 42 42 E 8 13 30.46 1031 10 16.0934 0 0
11:53 am 11:53 Sunny 38 3.3 16 -8.9 41 41 VRB 7 11 30.45 1031 10 16.0934 0 0
12:53 pm 12:53 Sunny 40 4.4 15 -9.4 36 36 ENE 6 9 30.43 1031 10 16.0934 0 0
1:28 pm 13:28 Sunny 41 5 16 -8.9 36 36 VRB 5 7 30.43 1030 10 16.0934 0 0
1:53 pm 13:53 Sunny 43 6.1 17 -8.3 35 35 Calm 30.41 1030 10 16.0934 0 0
2:53 pm 14:53 Sunny 44 6.7 20 -6.7 38 38 VRB 5 7 30.37 1029 10 16.0934 0 0
3:53 pm 15:53 Sunny 46 7.8 20 -6.7 35 35 NNE 9 15 30.34 1027 10 16.0934 0 0
4:53 pm 16:53 Sunny 46 7.8 19 -7.2 34 34 WSW 8 13 30.31 1027 10 16.0934 0 0
5:53 pm 17:53 Sunny 46 7.8 18 -7.8 32 32 Calm 30.3 1026 10 16.0934 0 0
6:53 pm 18:53 Sunny 46 7.8 18 -7.8 32 32 Calm 30.29 1026 10 16.0934 0 0
7:53 pm 19:53 Sunny 44 6.7 18 -7.8 35 35 NE 3 6 30.28 1026 10 16.0934 0 0
8:53 pm 20:53 Clear 40 4.4 26 -3.3 58 58 Calm 30.28 1025 10 16.0934 0 0
9:53 pm 21:53 Clear 37 2.8 26 -3.3 65 65 NNE 3 6 30.27 1025 10 16.0934 0 0
10:53 pm 22:53 Clear 35 1.7 28 -2.2 76 76 Calm 30.28 1025 10 16.0934 0 0
11:53 pm 23:53 Clear 33 0.6 27 -2.8 78 78 ENE 3 6 30.27 1025 10 16.0934 0 0

Powered by AerisWeather